This is the latest recevied weather packets stored in our database for station/object N5PLO-10. If no packets are shown the sender has not sent any weather packets the latest 10 day(s).
| Time | Temp. | Humidity | Pressure | Rain* | Wind** | Luminosity | Snow |
|---|---|---|---|---|---|---|---|
| 1777731467 | 14.44° C | 98% | 1022.2 hPa | 0 mm | - | 306 W/m² | - |
| 1777731166 | 13.89° C | 98% | 1022.1 hPa | 0 mm | - | 253 W/m² | - |
| 1777730863 | 13.89° C | 99% | 1022.1 hPa | 0 mm | - | 134 W/m² | - |
| 1777730561 | 13.33° C | 99% | 1021.7 hPa | 1.27 mm | - | 54 W/m² | - |
| 1777730256 | 13.33° C | 99% | 1021.8 hPa | 1.27 mm | - | 49 W/m² | - |
| 1777729953 | 13.33° C | 99% | 1021.7 hPa | 0 mm | - | 47 W/m² | - |
| 1777729649 | 13.33° C | 99% | 1021.5 hPa | 0 mm | - | 46 W/m² | - |
| 1777729347 | 13.33° C | 99% | 1021.5 hPa | 0 mm | - | 46 W/m² | - |
| 1777729043 | 12.78° C | 99% | 1021.5 hPa | 0 mm | - | 42 W/m² | - |
| 1777728740 | 12.78° C | 99% | 1021.3 hPa | 0 mm | - | 41 W/m² | - |
| 1777728436 | 12.78° C | 99% | 1021.3 hPa | 0 mm | - | 39 W/m² | - |
| 1777728134 | 12.78° C | 99% | 1021 hPa | 0 mm | - | 38 W/m² | - |
| 1777727831 | 12.22° C | 99% | 1020.7 hPa | 0 mm | - | 37 W/m² | - |
| 1777727528 | 12.22° C | 99% | 1020.8 hPa | 0 mm | - | 35 W/m² | - |
| 1777727225 | 12.22° C | 99% | 1020.6 hPa | 0 mm | - | 34 W/m² | - |
| 1777726923 | 11.67° C | 99% | 1020.6 hPa | 0 mm | - | 33 W/m² | - |
| 1777726618 | 11.67° C | 99% | 1020.6 hPa | 0 mm | - | 31 W/m² | - |
| 1777726316 | 11.67° C | 99% | 1020.5 hPa | 0 mm | - | 30 W/m² | - |
| 1777726013 | 11.67° C | 99% | 1020.5 hPa | 0 mm | - | 29 W/m² | - |
| 1777725710 | 11.67° C | 99% | 1020.4 hPa | 0 mm | - | 27 W/m² | - |
| 1777725408 | 11.67° C | 99% | 1020.2 hPa | 0 mm | - | 25 W/m² | - |
| 1777725105 | 11.11° C | 99% | 1020.3 hPa | 0 mm | - | 24 W/m² | - |
| 1777724801 | 11.11° C | 99% | 1020.2 hPa | 0 mm | - | 22 W/m² | - |
| 1777724498 | 11.11° C | 99% | 1020 hPa | 0 mm | - | 20 W/m² | - |
| 1777724196 | 11.11° C | 99% | 1020 hPa | 0 mm | - | 19 W/m² | - |
* Rain latest hour (hover to see other rain measurements)
** Current wind speed in m/s (hover to see current wind gust speed)